Location: Moonridge Observatory
(39.2268°N, 77.7914°W)
Time: 00:15:11
(UTC-04:00)

CZ-2C R/B - Visible Passes

Search period start: 27 May 2017 00:00
Search period end: 06 June 2017 00:00
Orbit: 705 x 907 km, 98.2° (Epoch: 26 May)

Date Brightness Start Highest point End Pass type
(mag) Time Alt. Az. Time Alt. Az. Time Alt. Az.
27 May 3.4 00:23:18 60° ENE 00:23:18 60° ENE 00:28:45 10° N visible
27 May 5.1 02:04:21 16° WNW 02:04:21 16° WNW 02:07:02 10° NW visible
27 May 4.1 23:58:09 36° E 23:58:36 36° ENE 00:03:44 10° N visible
28 May 4.5 01:39:13 28° W 01:39:13 28° W 01:43:17 10° NW visible
28 May 4.7 23:33:01 22° E 23:34:05 23° ENE 23:38:25 10° NNE visible
29 May 3.8 01:14:05 46° W 01:14:05 46° W 01:19:00 10° NNW visible
29 May 5.3 23:07:53 13° E 23:09:41 14° ENE 23:12:36 10° NNE visible
30 May 3.2 00:48:57 78° WNW 00:48:57 78° WNW 00:54:25 10° NNW visible
31 May 3.4 00:23:49 62° E 00:23:58 62° ENE 00:29:36 10° N visible
31 May 5.1 02:04:53 17° W 02:04:53 17° W 02:07:48 10° NW visible
31 May 4.0 23:58:42 37° E 23:59:20 38° ENE 00:04:36 10° N visible
01 Jun 4.5 01:39:46 28° W 01:39:46 28° W 01:44:05 10° NW visible
01 Jun 4.7 23:33:34 22° E 23:34:50 24° ENE 23:39:19 10° NNE visible
02 Jun 3.8 01:14:38 46° W 01:14:38 46° W 01:19:49 10° NNW visible
02 Jun 5.3 23:08:27 13° E 23:10:25 15° ENE 23:13:35 10° NNE visible
03 Jun 3.2 00:49:31 78° W 00:49:31 78° W 00:55:15 10° NNW visible
04 Jun 3.3 00:24:24 63° E 00:24:44 65° ENE 00:30:28 10° N visible
04 Jun 5.1 02:05:28 16° W 02:05:28 16° W 02:08:35 10° NW visible
04 Jun 4.0 23:59:17 38° E 00:00:07 40° ENE 00:05:27 10° N visible
05 Jun 4.5 01:40:21 28° W 01:40:21 28° W 01:44:53 10° NW visible
05 Jun 4.7 23:34:10 23° E 23:35:36 25° ENE 23:40:13 10° NNE visible
